Weather History for Blacksburg, VA

Change the Weather History Date:

Saturday, December 22, 2012

  Actual Average Record
Temperature  
Mean Temperature 30 °F 32 °F  
Max Temperature 34 °F 42 °F 64 °F (1956)
Min Temperature 25 °F 23 °F -8 °F (1985)
Degree Days  
Heating Degree Days 35 33  
Month to date heating degree days 518 668  
Since 1 July heating degree days 1794 1848  
Cooling Degree Days 0 0  
Month to date cooling degree days 0 0  
Year to date cooling degree days 716 573  
Moisture  
Dew Point 23 °F    
Average Humidity 71    
Maximum Humidity 85    
Minimum Humidity 56    
Precipitation  
Precipitation T in 0.09 in 1.20 in (1972)
Month to date precipitation 0.85 2.12  
Year to date precipitation 34.97 40.06  
Snow  
Snow T in - - ()
Month to date snowfall T  
Since 1 July snowfall 0.6  
Snow Depth 0.00 in    
Sea Level Pressure  
Sea Level Pressure 29.99 in    
Wind  
Wind Speed 17 mph (WNW)    
Max Wind Speed 32 mph    
Max Gust Speed 54 mph    
Visibility 10 miles    
Events Snow    
T = Trace of Precipitation, MM = Missing Value Source: NWS Daily Summary

Daily Weather History Graph

Daily Weather History Graph

Search for Another Location

Airport:

Trip Planner

Search our weather history database for the weather conditions in past years. The results will help you decide how hot, cold, wet, or windy it might be!

Date:

Astronomy

Dec. 22, 2012 Rise Set
Actual Time 7:32 AM EST 5:08 PM EST
Civil Twilight 7:03 AM EST 5:37 PM EST
Nautical Twilight 6:30 AM EST 6:10 PM EST
Astronomical Twilight 5:58 AM EST 6:42 PM EST
Moon 1:21 PM EST (12/22) 2:20 AM EST (12/22)
Length of Visible Light 10h 34m
Length of Day
9h 36m
Waxing Gibbous, 73% of the Moon is Illuminated
Dec 22
Waxing Gibbous
Dec 28
Full
Jan 4
Last Quarter
Jan 11
New
Jan 18
First Quarter

Hourly Weather History & Observations

Time (EST) Temp. Windchill Dew Point Humidity Pressure Visibility Wind Dir Wind Speed Gust Speed Precip Events Conditions
12:15 AM 28.4 °F 14.4 °F 23.0 °F 80% 29.77 in 10.0 mi WNW 23.0 mph 36.8 mph N/A Snow Light Snow
12:35 AM 28.4 °F 16.2 °F 23.0 °F 80% 29.76 in 10.0 mi WNW 17.3 mph 32.2 mph N/A   Overcast
12:55 AM 28.4 °F 16.2 °F 23.0 °F 80% 29.76 in 10.0 mi WNW 17.3 mph 36.8 mph N/A   Overcast
1:15 AM 28.4 °F 15.1 °F 24.8 °F 86% 29.77 in 10.0 mi WNW 20.7 mph 31.1 mph N/A   Overcast
1:35 AM 30.2 °F 18.5 °F 24.8 °F 80% 29.77 in 10.0 mi WNW 17.3 mph 32.2 mph N/A   Overcast
1:55 AM 30.2 °F 18.1 °F 23.0 °F 75% 29.79 in 10.0 mi WNW 18.4 mph 33.4 mph N/A Snow Light Snow
2:15 AM 30.2 °F 18.1 °F 23.0 °F 75% 29.80 in 10.0 mi WNW 18.4 mph 33.4 mph N/A   Overcast
2:35 AM 30.2 °F 17.4 °F 24.8 °F 80% 29.81 in 10.0 mi WNW 20.7 mph 29.9 mph N/A Snow Light Snow
2:55 AM 30.2 °F 16.5 °F 23.0 °F 75% 29.82 in 10.0 mi WNW 24.2 mph 38.0 mph N/A Snow Light Snow
3:15 AM 30.2 °F 16.2 °F 24.8 °F 80% 29.83 in 10.0 mi WNW 25.3 mph 34.5 mph N/A Snow Light Snow
3:35 AM 30.2 °F 15.7 °F 24.8 °F 80% 29.83 in 7.0 mi WNW 27.6 mph 40.3 mph N/A Snow Light Snow
4:15 AM 28.4 °F 15.1 °F 24.8 °F 86% 29.85 in 5.0 mi WNW 20.7 mph 39.1 mph N/A   Overcast
4:35 AM 30.2 °F 15.7 °F 24.8 °F 80% 29.87 in 7.0 mi WNW 27.6 mph 44.9 mph N/A Snow Light Snow
4:55 AM 30.2 °F 14.7 °F 24.8 °F 80% 29.88 in 10.0 mi WNW 32.2 mph 54.1 mph N/A   Overcast
5:15 AM 30.2 °F 16.2 °F 24.8 °F 80% 29.88 in 10.0 mi WNW 25.3 mph 40.3 mph N/A   Overcast
5:35 AM 30.2 °F 15.4 °F 24.8 °F 80% 29.90 in 10.0 mi WNW 28.8 mph 41.4 mph N/A   Overcast
5:55 AM 30.2 °F 16.2 °F 24.8 °F 80% 29.90 in 10.0 mi WNW 25.3 mph 42.6 mph N/A   Overcast
6:15 AM 28.4 °F 13.8 °F 23.0 °F 80% 29.92 in 10.0 mi WNW 25.3 mph 39.1 mph N/A   Overcast
6:35 AM 28.4 °F 13.8 °F 23.0 °F 80% 29.93 in 10.0 mi WNW 25.3 mph 40.3 mph N/A Snow Light Snow
6:55 AM 28.4 °F 14.1 °F 24.8 °F 86% 29.95 in 10.0 mi WNW 24.2 mph 44.9 mph N/A   Overcast
7:15 AM 28.4 °F 13.8 °F 24.8 °F 86% 29.96 in 10.0 mi WNW 25.3 mph 34.5 mph N/A Snow Light Snow
7:35 AM 28.4 °F 14.4 °F 23.0 °F 80% 29.97 in 10.0 mi WNW 23.0 mph 38.0 mph N/A Snow Light Snow
7:55 AM 28.4 °F 14.7 °F 23.0 °F 80% 29.98 in 10.0 mi WNW 21.9 mph 35.7 mph N/A Snow Light Snow
8:15 AM 28.4 °F 14.1 °F 23.0 °F 80% 30.00 in 10.0 mi WNW 24.2 mph 35.7 mph N/A Snow Light Snow
8:35 AM 28.4 °F 15.8 °F 23.0 °F 80% 30.02 in 10.0 mi WNW 18.4 mph 36.8 mph N/A Snow Light Snow
8:55 AM 28.4 °F 16.2 °F 23.0 °F 80% 30.03 in 7.0 mi WNW 17.3 mph 31.1 mph N/A Snow Light Snow
9:15 AM 28.4 °F 17.5 °F 23.0 °F 80% 30.05 in 7.0 mi WNW 13.8 mph 31.1 mph N/A Snow Light Snow
9:35 AM 28.4 °F 17.0 °F 23.0 °F 80% 30.06 in 10.0 mi WNW 15.0 mph 28.8 mph N/A Snow Light Snow
9:55 AM 28.4 °F 18.0 °F 23.0 °F 80% 30.07 in 10.0 mi West 12.7 mph 29.9 mph N/A   Overcast
10:15 AM 28.4 °F 16.6 °F 23.0 °F 80% 30.07 in 10.0 mi West 16.1 mph 24.2 mph N/A   Overcast
10:35 AM 30.2 °F 19.8 °F 23.0 °F 75% 30.07 in 10.0 mi West 13.8 mph 24.2 mph N/A   Overcast
10:55 AM 30.2 °F 18.9 °F 23.0 °F 75% 30.07 in 10.0 mi West 16.1 mph 31.1 mph N/A   Overcast
11:15 AM 30.2 °F 20.2 °F 23.0 °F 75% 30.06 in 10.0 mi West 12.7 mph 32.2 mph N/A   Mostly Cloudy
11:35 AM 32.0 °F 23.0 °F 23.0 °F 69% 30.06 in 10.0 mi WNW 11.5 mph 29.9 mph N/A   Scattered Clouds
11:55 AM 33.8 °F 22.2 °F 23.0 °F 65% 30.05 in 10.0 mi West 20.7 mph 31.1 mph N/A   Scattered Clouds
12:15 PM 33.8 °F 23.5 °F 23.0 °F 65% 30.05 in 10.0 mi West 16.1 mph 26.5 mph N/A   Clear
12:35 PM 33.8 °F 22.8 °F 23.0 °F 65% 30.03 in 10.0 mi West 18.4 mph 25.3 mph N/A   Clear
12:55 PM 33.8 °F 23.5 °F 23.0 °F 65% 30.02 in 10.0 mi WNW 16.1 mph 25.3 mph N/A   Clear
1:15 PM 35.6 °F 27.1 °F 23.0 °F 60% 30.01 in 10.0 mi WNW 12.7 mph 26.5 mph N/A   Clear
1:35 PM 35.6 °F 25.2 °F 23.0 °F 60% 30.01 in 10.0 mi WNW 18.4 mph 24.2 mph N/A   Clear
1:55 PM 35.6 °F 25.9 °F 23.0 °F 60% 30.01 in 10.0 mi WNW 16.1 mph 23.0 mph N/A   Clear
2:15 PM 35.6 °F 27.1 °F 24.8 °F 65% 30.00 in 10.0 mi WNW 12.7 mph 25.3 mph N/A   Clear
2:35 PM 35.6 °F 26.6 °F 23.0 °F 60% 30.00 in 10.0 mi West 13.8 mph 25.3 mph N/A   Clear
2:55 PM 35.6 °F 25.9 °F 23.0 °F 60% 30.00 in 10.0 mi WNW 16.1 mph 26.5 mph N/A   Clear
3:15 PM 35.6 °F 27.1 °F 21.2 °F 56% 30.00 in 10.0 mi West 12.7 mph 23.0 mph N/A   Clear
3:35 PM 35.6 °F 26.6 °F 21.2 °F 56% 30.01 in 10.0 mi WNW 13.8 mph 24.2 mph N/A   Clear
3:55 PM 35.6 °F 25.5 °F 21.2 °F 56% 30.01 in 10.0 mi West 17.3 mph 27.6 mph N/A   Clear
4:15 PM 35.6 °F 26.6 °F 21.2 °F 56% 30.02 in 10.0 mi WNW 13.8 mph 21.9 mph N/A   Clear
4:35 PM 35.6 °F 26.2 °F 21.2 °F 56% 30.03 in 10.0 mi WNW 15.0 mph 24.2 mph N/A   Clear
4:55 PM 35.6 °F 25.2 °F 21.2 °F 56% 30.04 in 10.0 mi WNW 18.4 mph 25.3 mph N/A   Clear
5:15 PM 33.8 °F 23.9 °F 21.2 °F 60% 30.05 in 10.0 mi WNW 15.0 mph 24.2 mph N/A   Clear
5:35 PM 33.8 °F 24.3 °F 21.2 °F 60% 30.06 in 10.0 mi WNW 13.8 mph 20.7 mph N/A   Clear
5:55 PM 33.8 °F 23.9 °F 21.2 °F 60% 30.06 in 10.0 mi WNW 15.0 mph 24.2 mph N/A   Clear
6:15 PM 33.8 °F 26.4 °F 21.2 °F 60% 30.06 in 10.0 mi WNW 9.2 mph 19.6 mph N/A   Clear
6:35 PM 33.8 °F 23.9 °F 21.2 °F 60% 30.07 in 10.0 mi WNW 15.0 mph 19.6 mph N/A   Clear
6:55 PM 33.8 °F 24.8 °F 21.2 °F 60% 30.07 in 10.0 mi WNW 12.7 mph 21.9 mph N/A   Clear
7:15 PM 33.8 °F 25.3 °F 21.2 °F 60% 30.07 in 10.0 mi WNW 11.5 mph 18.4 mph N/A   Clear
7:35 PM 33.8 °F 24.8 °F 21.2 °F 60% 30.07 in 10.0 mi WNW 12.7 mph 19.6 mph N/A   Clear
7:55 PM 33.8 °F 26.4 °F 21.2 °F 60% 30.07 in 10.0 mi WNW 9.2 mph 18.4 mph N/A   Clear
8:15 PM 32.0 °F 23.6 °F 21.2 °F 64% 30.08 in 10.0 mi WNW 10.4 mph 17.3 mph N/A   Clear
8:35 PM 32.0 °F 24.8 °F 21.2 °F 64% 30.07 in 10.0 mi WNW 8.1 mph - N/A   Clear
8:55 PM 32.0 °F 24.2 °F 21.2 °F 64% 30.08 in 10.0 mi WNW 9.2 mph - N/A   Clear
9:15 PM 33.8 °F 25.3 °F 21.2 °F 60% 30.07 in 10.0 mi West 11.5 mph 20.7 mph N/A   Clear
9:35 PM 32.0 °F 25.6 °F 21.2 °F 64% 30.08 in 10.0 mi West 6.9 mph - N/A   Clear
9:55 PM 32.0 °F 24.8 °F 19.4 °F 60% 30.07 in 10.0 mi West 8.1 mph - N/A   Clear
10:15 PM 32.0 °F 27.5 °F 19.4 °F 60% 30.08 in 10.0 mi West 4.6 mph - N/A   Clear
10:35 PM 30.2 °F 23.4 °F 19.4 °F 64% 30.09 in 10.0 mi West 6.9 mph - N/A   Clear
10:55 PM 32.0 °F 24.8 °F 21.2 °F 64% 30.09 in 10.0 mi West 8.1 mph - N/A   Clear
11:15 PM 30.2 °F 26.7 °F 19.4 °F 64% 30.09 in 10.0 mi SSW 3.5 mph - N/A   Clear
11:35 PM 30.2 °F - 19.4 °F 64% 30.09 in 10.0 mi Calm Calm - N/A   Clear
11:55 PM 30.2 °F 25.4 °F 19.4 °F 64% 30.08 in 10.0 mi SSW 4.6 mph - N/A   Clear